Theta_e
350 358 365 365 365 367 365 365 367 367 366 366 365 364 363 363 364 364 363 361 360 360 359 360 361 360 360 360 358 358 355 358 358 357 357 354 358 360 363 361 364 358 365
350 357 366 365 365 366 365 365 366 365 367 365 365 364 362 361 362 363 361 360 360 360 360 359 359 358 360 355 356 357 356 359 360 359 358 356 358 360 361 358 357 359 363
352 356 361 367 365 365 367 365 365 365 365 366 363 362 362 360 360 360 359 360 361 360 359 359 359 360 359 359 359 359 358 358 359 359 352 345 343 359 360 351 358 360 362
353 353 356 367 366 364 366 366 366 364 364 364 364 362 361 360 360 359 359 360 360 359 360 359 359 359 359 359 358 359 359 360 358 345 337 337 340 353 360 358 364 361 360
353 355 358 366 367 364 364 365 365 364 362 362 362 361 360 359 359 359 360 359 359 360 358 360 359 359 358 358 359 359 358 358 357 344 335 338 339 349 361 361 361 363 361
354 356 364 366 364 363 360 360 361 361 362 362 362 361 361 360 361 360 360 361 360 358 360 360 358 358 356 357 357 355 355 358 358 339 336 336 341 358 360 362 362 362 362
356 357 360 367 364 362 362 361 361 362 359 358 358 360 362 359 360 361 359 357 357 360 358 356 357 356 354 355 354 354 357 357 345 345 347 344 355 359 357 359 362 362 361
355 354 359 365 365 364 363 362 361 361 361 361 361 360 360 359 359 357 358 360 359 358 356 356 356 353 353 353 354 355 358 358 352 349 353 355 361 364 362 361 362 362 362
352 355 359 360 363 364 363 360 362 360 361 360 360 360 361 360 359 360 360 359 357 355 355 355 356 353 354 354 356 358 359 354 334 349 352 357 363 364 363 363 364 364 362
354 354 358 358 359 360 360 361 360 361 360 360 359 361 362 360 361 360 361 360 358 356 357 357 353 352 353 354 357 359 357 352 340 345 351 355 362 364 361 362 363 362 361
353 354 354 354 358 366 361 357 360 361 361 359 351 359 360 358 357 357 362 360 359 359 357 356 356 354 353 355 355 358 359 355 346 353 349 359 362 363 362 362 362 362 362
348 351 354 354 356 356 358 358 359 358 357 357 357 360 358 355 359 353 361 361 360 360 359 357 357 353 354 347 345 350 351 349 349 350 350 360 361 360 359 361 361 360 359
349 354 355 356 357 356 358 362 359 358 357 355 360 363 357 357 355 354 355 351 357 358 354 357 356 352 351 352 340 344 350 346 346 352 353 360 360 358 358 359 359 360 358
348 349 350 353 361 359 360 356 356 356 357 356 355 360 359 356 357 351 350 349 361 357 361 360 357 355 353 352 344 348 352 350 346 350 354 360 360 359 358 358 359 358 359
347 351 355 359 361 360 359 360 359 354 354 353 353 353 359 351 363 355 361 357 360 363 363 360 355 356 354 353 348 350 352 353 349 349 351 362 361 361 361 359 358 359 359
349 350 352 354 361 360 359 359 358 355 357 351 350 357 366 357 359 355 360 359 362 360 359 363 358 357 357 356 356 359 358 358 362 353 352 355 361 361 362 361 361 360 359
348 350 354 354 358 360 357 359 356 359 351 356 360 364 361 356 367 358 363 358 358 365 364 365 363 362 355 354 354 358 355 358 357 358 358 353 357 363 363 363 363 362 360
349 349 352 351 354 357 359 359 357 360 351 354 355 357 361 365 366 364 349 341 351 362 358 358 352 356 349 355 352 355 355 356 358 358 357 357 355 355 361 363 363 362 359
350 349 352 351 351 355 358 355 354 359 354 352 353 354 362 364 365 358 349 346 351 350 336 347 357 358 350 353 353 356 355 356 351 353 353 357 354 353 352 361 362 361 359
351 352 349 352 353 355 356 362 357 351 348 350 358 363 365 363 363 363 346 342 355 352 341 348 362 361 357 357 350 350 353 350 355 350 355 354 352 351 354 352 357 357 361
349 352 350 353 355 352 352 351 351 346 349 351 356 359 356 365 355 368 362 348 360 354 351 362 363 358 348 356 355 351 353 353 353 352 347 349 351 352 354 355 352 351 354
349 351 351 353 356 355 354 353 355 353 354 356 362 357 364 361 363 364 368 361 364 360 364 363 363 359 350 347 348 340 336 344 347 349 347 350 351 350 351 352 354 351 352
349 351 351 353 356 356 351 355 356 361 361 359 360 360 360 363 363 365 366 368 364 362 356 350 359 361 340 340 353 334 334 329 337 347 348 350 349 354 350 351 354 354 354
346 351 353 354 357 357 360 355 358 351 352 355 359 362 355 353 349 364 365 367 368 365 361 359 358 362 359 346 347 344 343 339 328 328 343 352 356 352 349 346 350 354 358
347 350 350 354 359 359 359 362 353 354 355 356 356 367 360 341 343 360 365 366 358 364 364 361 362 363 361 353 341 337 341 350 342 339 333 343 350 353 353 351 350 352 355
345 347 352 355 356 356 359 357 358 355 357 355 356 357 362 357 358 364 365 364 367 365 363 363 365 368 365 363 357 354 354 342 340 340 336 337 340 343 348 352 347 356 354
Wind_Speed
14 13 12 13 13 15 13 13 13 13 13 12 13 13 11 10 11 11 10 10 8 8 8 8 7 6 7 7 4 3 3 6 7 7 6 9 11 10 8 10 8 13 12
19 16 14 14 14 14 13 12 12 12 13 12 11 12 11 10 10 10 9 8 8 7 8 8 7 6 8 6 5 5 4 9 7 7 7 6 8 10 10 10 2 11 12
19 17 15 14 15 14 12 12 13 13 12 12 11 10 9 8 8 8 9 8 8 8 8 8 8 8 7 7 6 6 6 8 9 15 17 7 8 8 15 21 11 15 13
18 16 15 13 13 14 12 11 11 13 12 11 10 9 9 8 7 7 7 8 8 7 8 8 7 7 7 7 6 5 4 5 25 33 11 8 9 14 15 20 15 17 15
18 17 15 13 13 14 12 11 10 11 10 9 9 8 8 7 6 7 7 8 7 7 7 9 8 6 6 7 6 4 2 2 23 19 15 5 8 13 14 15 14 17 17
18 17 18 15 15 13 12 10 10 9 8 9 8 8 7 6 6 7 7 7 7 6 7 8 7 6 4 5 4 1 2 6 4 23 10 17 13 15 15 14 14 13 14
18 16 14 14 13 13 11 11 9 9 8 8 7 7 7 6 5 6 6 6 7 7 6 7 8 5 2 2 2 3 4 6 4 19 14 16 12 16 14 11 11 12 13
8 18 14 14 12 12 11 10 9 9 8 7 8 9 7 6 6 6 6 5 6 5 5 5 6 2 2 3 3 4 8 7 9 8 12 10 16 14 15 14 14 14 14
12 17 14 12 12 12 11 9 9 8 8 8 7 7 7 7 7 5 6 5 5 4 4 5 4 2 0 2 5 5 7 16 10 9 9 8 14 14 15 14 13 13 12
17 13 12 12 9 9 9 9 8 9 9 9 7 8 8 8 9 8 7 7 5 4 4 5 3 1 2 0 5 9 5 11 4 5 3 7 11 14 14 12 12 12 11
12 15 13 12 9 5 9 9 8 9 9 8 5 8 7 7 9 11 9 10 8 5 4 3 3 2 3 5 4 12 10 4 6 7 5 11 10 12 12 10 11 10 9
11 5 11 9 12 10 8 8 7 7 6 5 4 6 6 6 4 11 10 12 10 7 5 3 1 1 4 5 4 10 5 4 8 4 7 11 12 10 9 9 10 9 8
9 8 11 5 12 9 8 4 3 2 5 5 7 6 5 7 4 5 5 3 4 8 4 6 6 2 6 1 4 7 10 5 5 3 9 14 14 10 8 7 7 7 7
11 12 8 8 7 8 5 4 4 4 3 3 5 5 6 1 4 7 5 7 4 5 4 3 3 4 4 10 13 11 13 6 3 2 3 11 15 12 9 8 7 7 7
11 9 6 10 7 7 6 3 3 4 6 6 5 6 6 2 2 3 5 1 4 4 3 4 4 3 2 5 13 12 8 6 10 5 5 15 16 15 12 9 8 8 8
9 10 11 10 9 7 4 5 3 4 5 5 7 5 1 1 3 3 4 2 3 4 3 2 5 4 2 3 4 2 3 3 1 11 6 8 14 14 14 12 11 9 8
8 13 11 9 10 8 7 5 4 4 5 3 6 4 3 3 2 3 1 6 5 2 5 2 1 1 3 4 4 3 1 1 3 4 5 7 7 13 13 12 11 9 9
14 11 12 8 14 10 6 5 5 4 3 4 3 7 5 4 2 5 9 9 11 7 2 4 3 4 8 7 2 3 3 3 4 4 3 3 7 5 7 11 12 11 9
10 8 13 5 9 11 8 7 5 4 4 5 7 6 7 6 5 12 12 9 13 1 5 7 3 5 6 8 4 4 4 4 8 8 8 3 14 8 6 13 13 12 11
16 12 8 9 10 10 8 4 3 4 4 7 7 6 6 3 3 8 8 10 6 4 4 6 1 3 4 4 1 3 4 5 5 1 1 5 9 12 8 9 6 8 11
15 13 10 8 10 7 7 6 7 5 6 3 5 8 6 3 4 4 5 5 7 6 5 4 1 4 7 4 3 4 3 2 3 6 6 2 5 3 9 8 7 5 6
17 15 13 11 11 8 6 7 5 4 4 3 4 2 5 3 3 4 3 4 5 3 3 1 2 1 1 5 3 2 5 3 2 6 8 4 5 6 8 9 8 8 7
18 16 14 13 11 10 9 6 5 3 1 0 1 1 4 3 4 5 4 2 4 3 4 1 7 2 4 5 6 6 3 2 4 4 4 4 5 4 4 9 5 8 10
19 17 16 15 14 10 9 6 7 5 4 4 3 2 3 4 8 7 5 5 5 2 2 5 3 1 4 5 3 5 7 8 4 4 5 5 4 4 3 2 5 6 7
15 18 16 14 13 11 9 5 7 6 5 5 4 3 5 5 10 4 3 5 5 3 1 4 1 1 4 2 6 4 7 9 8 3 2 1 1 3 4 5 7 5 9
12 13 18 17 14 11 10 8 8 10 6 1 5 5 4 7 6 5 4 5 4 4 5 3 3 2 3 4 1 5 2 3 5 7 8 6 1 10 7 4 4 4 8
Wind_Direction
124 121 124 121 120 117 118 126 123 117 113 111 109 107 105 101 98 101 104 103 103 112 119 143 140 148 138 121 125 139 166 139 126 126 111 114 114 120 135 135 128 109 112
127 130 129 128 125 117 120 124 123 121 123 120 110 108 109 105 102 106 107 108 117 128 128 128 144 157 143 148 155 161 166 158 152 136 129 136 130 155 154 96 16 117 123
127 129 128 131 128 124 124 123 122 121 122 125 120 115 112 105 108 107 107 110 116 126 125 124 125 126 135 131 145 139 145 155 137 83 26 15 343 186 140 151 207 141 137
129 133 133 132 131 129 130 127 124 119 125 129 124 118 107 106 113 111 109 109 112 123 128 111 113 122 130 125 138 138 157 176 98 65 17 318 285 258 153 164 154 149 144
149 122 128 132 134 132 130 129 127 126 130 128 123 115 112 117 118 113 110 109 114 114 116 116 114 120 127 128 123 122 176 234 123 121 155 232 243 253 140 149 157 142 154
109 121 127 134 139 134 136 130 127 125 131 126 125 122 122 126 115 120 118 123 116 120 105 108 113 109 123 116 110 214 267 290 279 158 156 196 205 180 142 150 143 151 140
113 123 128 137 140 132 139 129 127 125 136 131 125 124 124 124 127 119 115 123 123 118 116 102 92 87 118 118 148 269 281 287 281 139 190 201 145 141 148 167 144 149 140
139 132 139 139 140 141 134 136 138 139 133 134 130 130 137 136 134 136 134 123 123 117 111 94 88 118 165 195 200 256 280 316 355 1 124 125 115 126 133 137 143 137 140
181 132 138 142 147 151 144 147 142 144 143 139 132 143 152 143 147 152 148 147 137 137 119 104 92 98 111 319 301 285 309 68 25 298 76 107 126 130 132 136 136 134 136
133 145 141 140 158 158 148 148 146 149 151 140 146 160 167 166 169 176 174 171 158 169 143 130 129 148 54 127 288 284 292 156 142 2 142 111 137 130 134 135 134 135 145
148 142 153 150 167 152 142 149 148 148 147 153 177 197 192 212 185 169 159 160 168 180 173 170 159 154 266 228 323 297 292 260 124 220 121 161 127 129 131 132 138 140 150
132 139 135 188 138 164 138 144 167 157 162 183 226 236 221 224 188 166 169 175 177 185 208 197 321 125 228 58 298 298 271 257 146 168 122 162 134 132 133 143 147 151 157
163 164 129 187 141 150 122 163 148 189 169 166 228 242 248 222 177 188 139 190 196 195 217 187 155 151 99 162 281 277 276 290 90 266 160 161 137 141 147 154 158 161 166
136 146 150 144 135 134 124 164 182 205 177 188 223 253 275 293 240 100 114 207 197 192 189 201 162 179 232 172 193 266 261 66 161 128 152 167 145 151 162 171 165 171 183
152 136 121 133 142 127 134 163 243 186 206 181 194 211 259 38 265 63 146 147 201 186 216 152 146 186 223 213 183 222 245 287 131 151 211 194 156 153 162 171 176 182 188
168 147 144 170 136 135 145 181 207 237 256 195 187 200 216 45 28 340 317 276 250 190 169 201 153 214 196 274 200 141 270 242 306 155 175 189 164 158 162 165 173 179 186
173 165 163 141 136 153 171 170 195 217 238 270 113 129 244 171 243 220 264 357 331 150 127 178 177 288 306 267 254 142 285 325 309 269 156 162 166 161 161 166 165 168 180
184 154 159 202 157 166 167 181 200 232 198 260 201 157 191 247 231 15 48 29 299 277 121 123 160 25 309 258 149 178 161 205 256 205 233 184 107 131 161 172 167 168 178
172 153 171 138 165 160 167 169 205 202 258 269 279 151 180 200 205 98 94 261 259 4 353 358 185 171 233 259 185 180 203 192 235 194 195 176 119 144 226 177 173 172 186
161 149 156 155 141 169 156 168 159 214 224 239 246 132 167 230 234 145 157 217 208 158 197 245 33 298 216 273 219 203 229 183 214 66 145 154 157 190 187 165 178 195 192
166 153 155 152 152 148 161 196 189 210 230 209 222 145 153 169 234 233 174 218 227 177 207 224 295 54 325 292 106 309 223 300 238 89 348 131 74 163 152 156 190 198 181
163 162 164 151 159 159 182 199 201 195 234 217 21 209 164 193 187 255 243 295 350 290 270 353 294 277 43 313 129 6 7 337 283 150 204 141 233 214 177 175 198 182 155
165 166 160 160 168 188 185 208 187 208 45 303 213 211 178 232 252 180 222 296 299 295 103 148 268 227 206 309 275 125 87 44 325 358 261 182 193 186 167 184 170 163 173
170 168 161 164 170 208 205 189 188 205 170 195 240 255 106 26 320 174 210 208 247 293 215 199 258 214 251 170 330 62 319 163 150 286 286 152 201 121 143 154 174 178 162
160 158 164 165 169 188 212 204 168 224 236 166 188 188 126 120 260 246 186 266 273 245 20 327 319 218 291 349 130 229 248 174 170 160 7 176 113 20 214 172 209 164 118
161 161 159 163 170 182 216 207 220 202 233 338 202 155 204 193 227 256 260 242 253 287 284 289 311 275 297 308 31 221 293 103 257 90 59 291 190 241 265 146 137 100 138